Showing default

SDX01, 62459

Orbit data source: Space-Track

SDX01, 62459 is a payload satellite owned by ISRO (IN) in LEO that was launched on Mon, 30 Dec 2024 UTC via a PSLV launch vehicle from the Sirharikota (SRI). Payloads include a variety of satellites, spacecraft, and rockets equipped with specific instruments for various scientific and technological missions. These include communications satellites like Starlink; space stations such as the ISS; scientific satellites like the Hubble; Earth observation satellites from companies like Planet Labs, Umbra, and HawkEye 360; GPS; miniature CubeSats for education and research; and military/defense satellites.

Loading next visibility...
SDX01 details
Identifier
62459, 2024-253A
Orbit
LEO
Last TLE update9 hours ago
Origin
Flag of INISRO (IN / IND)
ManufacturerISRO
MissionOperational Civil Technology
Bus & MotorSPADEX, Unknown motor
Mass220 kg wet, ~180 kg dry
Launch date (UTC)
2024-12-30 (2 months ago)
Launch vehicle
PSLV
Launch site
Sirharikota (SRI)
Object type
Payload
Rocket body
Debris
Shape & HBRBox + 2 Pan, 2.5 m
Radar Cross Section0.901 m², Large (>1 m²)

Expand to show TLE details & history

TLE from 9 hours ago
0 SDX01
1 62459U 24253A   25047.14310212  .00030575  00000-0  93174-3 0  9991
2 62459  54.9981  45.9956 0013867  55.4743 304.7590 15.33682122  7272
Epoch: 2025-02-16T03:26Z
Definitive object data (Epoch: 2025-02-16T03:26:04.023Z)
Latitude
Longitude-151.90156°
Altitude460.534 km
Speed7.641 km/s
True Right ascension03h 03m 58s
True Declination0° 00' 00"
Sunlit
Object was in daylight at TLE epoch
Visualization TLE readout
Latitude-41.49781°
Longitude64.48334°
Altitude488.226 km
Speed7.615 km/s
Apparent Right ascension21h 58m 51s
Apparent Declination-69° 44' 26"
Sunlit
Object is in daylight
Visualization observer readout
Local Sidereal Time15:02:39
Azimuth153.221° SSE
Elevation-41.793°
Doppler factor1
Orbital elements
Apogee altitude474.289 km
Perigee altitude455.311 km
Semi-major axis6,842.937 km
Eccentricity0.0013867
Inclination54.9981°
RAAN45.9956°
Arg. of periapsis55.4743°
True anomaly304.62832°
Mean anomaly304.759°
Eccentric anomaly304.69367°
Mean motion3.83424 °/min
BSTAR0.00093174
Orbital period93.89 mins
Loading maneuver chart data...
Loading historical data...
Loading historical data...
Loading historical data...
Loading historical data...
Loading historical data...
Loading historical data...
Loading historical data...
Other satellites on launch #253 in the year 2024 (2024-12-30 UTC)

SDX01 Visibility forecast

Observer location: undefined°, undefined

Span
Click to sort rows by Start time (UTC) header in descending order
Start Az.
Max El. time (UTC)
Max El. Az.
Max El.
End time (UTC)
End Az.
5 mins2025-02-17 01:29:09.645Z181.354° SSW2025-02-17 01:31:09.645Z142.178° SSE23.297°2025-02-17 01:34:09.645Z74.472° E
5 mins2025-02-17 03:07:09.645Z273.95° WNW2025-02-17 03:09:09.645Z329.909° NNW27.751°2025-02-17 03:12:09.645Z29.573° NE
5 mins2025-02-17 09:41:09.645Z300.65° NW2025-02-17 09:43:09.645Z216.27° SW41.711°2025-02-17 09:46:09.645Z145.922° SSE
|